Flag for U.S.A. Weather past 2 weeks in Dallas, Texas, U.S.A.

Now
82 °F

Passing clouds.


Feels Like: 87 °F
Forecast: 76 / 93 °F
Wind: 8 mph from South

Location: Dallas Love Field

Current Time: Sep 5, 2015 at 10:01:43 AM

Latest Report: Sep 5, 2015 at 8:53 AM


Visibility: 10 mi

Pressure: 29.99 "Hg

Humidity: 74%

Dew point: 73 °F

Location of DallasLocation

Historic Weather in Dallas — Graph

°F

Dallas temperature yesterday

Maximum temperature yesterday: 96 °F (at 4:53 PM)
Minimum temperature yesterday: 78 °F (at 6:53 AM)
Average temperature yesterday: 87 °F

Past Weeks' High & Low Weather Summary

 TemperatureHumidityPressure
High99 °F (Aug 24, 3:53 PM)85% (Aug 22, 6:53 AM)30.13 "Hg (Aug 22, 6:53 AM)
Low74 °F (Aug 27, 6:53 AM)21% (Aug 26, 3:53 PM)29.80 "Hg (Aug 22, 6:53 PM)
Average86 °F54%29.96 "Hg
* Reported Aug 21 8:53 AM — Sep 5 8:53 AM, Dallas, Weather by CustomWeather, © 2015

Note: Actual official high and low records may vary slightly from our data, if they occured in-between our weather recording intervals... More about our weather records

Advertising

Dallas weather history for previous 24 hours

 ConditionsComfort  
Time TempWeatherWind HumidityBarometerVisibility
8:53 AM
Sat, Sep 5
82 °FPassing clouds.8 mph74%29.99 "Hg10 mi
7:53 AM80 °FPassing clouds.7 mph76%29.97 "Hg10 mi
6:53 AM79 °FPassing clouds.9 mph79%29.96 "Hg10 mi
5:53 AM80 °FClear.7 mph76%29.95 "Hg10 mi
4:53 AM81 °FClear.9 mph74%29.94 "Hg10 mi
3:53 AM82 °FPassing clouds.9 mph72%29.93 "Hg10 mi
2:53 AM83 °FClear.9 mph68%29.92 "Hg10 mi
1:53 AM84 °FClear.9 mph65%29.91 "Hg10 mi
12:53 AM85 °FPassing clouds.10 mph61%29.90 "Hg10 mi
11:53 PM
Fri, Sep 4
87 °FPassing clouds.15 mph57%29.90 "Hg10 mi
10:53 PM87 °FPassing clouds.13 mph55%29.90 "Hg10 mi
9:53 PM89 °FPassing clouds.16 mph50%29.90 "Hg10 mi
8:53 PM90 °FPassing clouds.9 mph48%29.88 "Hg10 mi
7:53 PM92 °FScattered clouds.9 mph44%29.87 "Hg10 mi
6:53 PM94 °FScattered clouds.13 mph40%29.86 "Hg10 mi
5:53 PM94 °FBroken clouds.9 mph40%29.86 "Hg10 mi
4:53 PM96 °FScattered clouds.9 mph37%29.86 "Hg10 mi
3:53 PM95 °FScattered clouds.N/A40%29.87 "Hg10 mi
2:53 PM94 °FScattered clouds.No wind41%29.89 "Hg10 mi
1:53 PM92 °FBroken clouds.7 mph44%29.91 "Hg10 mi
12:53 PM90 °FScattered clouds.8 mph48%29.93 "Hg10 mi
11:53 AM91 °FPartly sunny.15 mph49%29.94 "Hg10 mi
10:53 AM87 °FScattered clouds.8 mph59%29.94 "Hg10 mi
Weather by CustomWeather, © 2015

See weather overviewHow to use our weather pages